When you browse on this site, cookies collect data to enhance your experience and personalize the content and advertising you see.
Visit our Privacy Policy to learn more. By continuing to use the site, you agree to this use of cookies and data.
  • Em Portugal
  • Lista de países
  • Para 7 dias
  • Temperatura da água
  • Mapas de satélite
  • Mapa do tempo
  • Widgets de tempo
  • user-avatar
    Iniciar Sessão

    Previsão horária em Trosna

    Hoje, 20 Maio, Segunda-feira

    Tempo Temperatura Precipitação Vento Pressão Humidade
    00:00 +13°C° 0 mm 2 m/s 745 mmHg 80%
    01:00 +12°C° 0 mm 2 m/s 745 mmHg 81%
    02:00 +12°C° 0 mm 2 m/s 745 mmHg 82%
    03:00 +12°C° 0 mm 2 m/s 746 mmHg 82%
    04:00 +12°C° 0 mm 2 m/s 746 mmHg 82%
    05:00 +12°C° 0 mm 2 m/s 746 mmHg 83%
    06:00 +14°C° 0 mm 2 m/s 746 mmHg 77%
    07:00 +16°C° 0 mm 2 m/s 747 mmHg 70%
    08:00 +17°C° 0 mm 2 m/s 747 mmHg 64%
    09:00 +18°C° 0 mm 2 m/s 747 mmHg 61%
    10:00 +19°C° 0 mm 2 m/s 747 mmHg 58%
    11:00 +20°C° 0 mm 2 m/s 747 mmHg 54%
    12:00 +21°C° 0 mm 2 m/s 747 mmHg 53%
    13:00 +21°C° 0 mm 2 m/s 747 mmHg 53%
    14:00 +23°C° 0 mm 2 m/s 747 mmHg 52%
    15:00 +21°C° 0 mm 2 m/s 747 mmHg 55%
    16:00 +21°C° 0 mm 2 m/s 746 mmHg 59%
    17:00 +21°C° 0 mm 2 m/s 746 mmHg 63%
    18:00 +19°C° 0 mm 2 m/s 746 mmHg 67%
    19:00 +17°C° 0 mm 2 m/s 746 mmHg 72%
    20:00 +15°C° 0 mm 2 m/s 746 mmHg 76%
    21:00 +14°C° 0 mm 2 m/s 746 mmHg 78%
    22:00 +14°C° 0 mm 2 m/s 747 mmHg 79%
    23:00 +13°C° 0 mm 2 m/s 747 mmHg 80%

    Amanhã, 21 Maio, Terça-feira

    Tempo Temperatura Precipitação Vento Pressão Humidade
    00:00 +12°C° 0 mm 2 m/s 747 mmHg 80%
    01:00 +12°C° 0 mm 2 m/s 747 mmHg 80%
    02:00 +10°C° 0 mm 2 m/s 747 mmHg 80%
    03:00 +10°C° 0 mm 2 m/s 747 mmHg 80%
    04:00 +12°C° 0 mm 2 m/s 747 mmHg 80%
    05:00 +12°C° 0 mm 2 m/s 747 mmHg 80%
    06:00 +12°C° 0 mm 3 m/s 747 mmHg 75%
    07:00 +14°C° 0 mm 4 m/s 747 mmHg 70%
    08:00 +17°C° 0 mm 4 m/s 747 mmHg 65%
    09:00 +18°C° 0 mm 4 m/s 747 mmHg 63%
    10:00 +19°C° 0 mm 5 m/s 746 mmHg 60%
    11:00 +20°C° 0 mm 5 m/s 746 mmHg 57%
    12:00 +20°C° 0 mm 5 m/s 746 mmHg 57%
    13:00 +21°C° 0 mm 5 m/s 746 mmHg 57%
    14:00 +21°C° 0 mm 5 m/s 745 mmHg 56%
    15:00 +21°C° 0 mm 4 m/s 745 mmHg 60%
    16:00 +21°C° 0 mm 4 m/s 744 mmHg 64%
    17:00 +21°C° 0 mm 3 m/s 744 mmHg 68%
    18:00 +19°C° 0 mm 3 m/s 744 mmHg 74%
    19:00 +17°C° 0 mm 3 m/s 744 mmHg 80%
    20:00 +16°C° 0 mm 3 m/s 743 mmHg 85%
    21:00 +14°C° 0 mm 3 m/s 743 mmHg 86%
    22:00 +14°C° 0 mm 3 m/s 743 mmHg 87%
    23:00 +13°C° 0 mm 4 m/s 743 mmHg 88%

    Depois de amanhã, 22 Maio, Quarta-feira

    Tempo Temperatura Precipitação Vento Pressão Humidade
    00:00 +13°C° 0 mm 4 m/s 743 mmHg 86%
    01:00 +13°C° 0 mm 3 m/s 742 mmHg 84%
    02:00 +13°C° 0 mm 3 m/s 742 mmHg 82%
    03:00 +13°C° 0 mm 3 m/s 742 mmHg 83%
    04:00 +13°C° 0 mm 3 m/s 742 mmHg 85%
    05:00 +13°C° 0 mm 3 m/s 741 mmHg 86%
    06:00 +16°C° 0 mm 3 m/s 741 mmHg 84%
    07:00 +17°C° 0 mm 4 m/s 741 mmHg 82%
    08:00 +18°C° 0 mm 4 m/s 741 mmHg 80%
    09:00 +19°C° 0.1 mm 4 m/s 741 mmHg 78%
    10:00 +20°C° 0.1 mm 4 m/s 741 mmHg 76%
    11:00 +21°C° 0.1 mm 5 m/s 741 mmHg 75%
    12:00 +21°C° 0.7 mm 5 m/s 740 mmHg 74%
    13:00 +22°C° 0.7 mm 5 m/s 740 mmHg 74%
    14:00 +22°C° 0.7 mm 5 m/s 740 mmHg 74%
    15:00 +22°C° 0.4 mm 5 m/s 739 mmHg 75%
    16:00 +21°C° 0.4 mm 4 m/s 739 mmHg 77%
    17:00 +21°C° 0.4 mm 4 m/s 739 mmHg 79%
    18:00 +20°C° 0 mm 4 m/s 739 mmHg 83%
    19:00 +19°C° 0 mm 3 m/s 739 mmHg 88%
    20:00 +17°C° 0 mm 2 m/s 738 mmHg 92%
    21:00 +17°C° 0.6 mm 2 m/s 738 mmHg 93%
    22:00 +16°C° 0.6 mm 2 m/s 738 mmHg 94%
    23:00 +15°C° 0.6 mm 2 m/s 738 mmHg 94%

    23 Maio, Quinta-feira

    Tempo Temperatura Precipitação Vento Pressão Humidade
    00:00 +15°C° 0 mm 2 m/s 738 mmHg 94%
    01:00 +15°C° 0 mm 2 m/s 738 mmHg 95%
    02:00 +14°C° 0 mm 2 m/s 738 mmHg 95%
    03:00 +15°C° 0 mm 2 m/s 738 mmHg 95%
    04:00 +15°C° 0 mm 2 m/s 737 mmHg 95%
    05:00 +15°C° 0 mm 1 m/s 737 mmHg 95%
    06:00 +17°C° 0 mm 2 m/s 737 mmHg 90%
    07:00 +18°C° 0 mm 2 m/s 737 mmHg 85%
    08:00 +20°C° 0 mm 2 m/s 737 mmHg 80%
    09:00 +21°C° 0.2 mm 2 m/s 737 mmHg 74%
    10:00 +23°C° 0.2 mm 2 m/s 737 mmHg 69%
    11:00 +24°C° 0.2 mm 3 m/s 737 mmHg 64%
    12:00 +25°C° 0.3 mm 3 m/s 737 mmHg 63%
    13:00 +25°C° 0.3 mm 3 m/s 737 mmHg 62%
    14:00 +25°C° 0.3 mm 3 m/s 736 mmHg 60%
    15:00 +25°C° 0.6 mm 3 m/s 736 mmHg 64%
    16:00 +24°C° 0.6 mm 2 m/s 736 mmHg 68%
    17:00 +24°C° 0.6 mm 2 m/s 736 mmHg 71%
    18:00 +21°C° 0.2 mm 2 m/s 736 mmHg 76%
    19:00 +20°C° 0.2 mm 2 m/s 736 mmHg 80%
    20:00 +18°C° 0.2 mm 2 m/s 736 mmHg 85%
    21:00 +17°C° 0.3 mm 2 m/s 736 mmHg 86%
    22:00 +17°C° 0.3 mm 2 m/s 736 mmHg 87%
    23:00 +17°C° 0.3 mm 2 m/s 736 mmHg 89%

    24 Maio, Sexta-feira

    Tempo Temperatura Precipitação Vento Pressão Humidade
    00:00 +16°C° 0.6 mm 2 m/s 736 mmHg 90%
    01:00 +16°C° 0.6 mm 2 m/s 736 mmHg 91%
    02:00 +16°C° 0.6 mm 2 m/s 736 mmHg 92%
    03:00 +16°C° 0 mm 2 m/s 736 mmHg 92%
    04:00 +16°C° 0 mm 2 m/s 736 mmHg 91%
    05:00 +16°C° 0 mm 2 m/s 736 mmHg 91%
    06:00 +17°C° 0 mm 2 m/s 736 mmHg 87%
    07:00 +19°C° 0 mm 2 m/s 736 mmHg 83%
    08:00 +20°C° 0 mm 2 m/s 736 mmHg 79%
    09:00 +21°C° 0 mm 2 m/s 736 mmHg 74%
    10:00 +23°C° 0 mm 2 m/s 736 mmHg 69%
    11:00 +24°C° 0 mm 3 m/s 736 mmHg 64%
    12:00 +25°C° 0.1 mm 3 m/s 736 mmHg 63%
    13:00 +25°C° 0.1 mm 3 m/s 735 mmHg 61%
    14:00 +25°C° 0.1 mm 3 m/s 735 mmHg 60%
    15:00 +25°C° 1.7 mm 3 m/s 735 mmHg 65%
    16:00 +24°C° 1.7 mm 2 m/s 735 mmHg 70%
    17:00 +23°C° 1.7 mm 2 m/s 734 mmHg 75%
    18:00 +21°C° 0.7 mm 2 m/s 734 mmHg 78%
    19:00 +19°C° 0.7 mm 2 m/s 734 mmHg 81%
    20:00 +18°C° 0.7 mm 2 m/s 734 mmHg 84%
    21:00 +17°C° 0.2 mm 2 m/s 734 mmHg 85%
    22:00 +17°C° 0.2 mm 2 m/s 734 mmHg 86%
    23:00 +17°C° 0.2 mm 2 m/s 734 mmHg 87%

    25 Maio, Sábado

    Tempo Temperatura Precipitação Vento Pressão Humidade
    00:00 +16°C° 0 mm 2 m/s 734 mmHg 90%
    01:00 +16°C° 0 mm 2 m/s 733 mmHg 92%
    02:00 +16°C° 0 mm 2 m/s 733 mmHg 94%
    03:00 +16°C° 0 mm 2 m/s 733 mmHg 94%
    04:00 +16°C° 0 mm 2 m/s 733 mmHg 95%
    05:00 +16°C° 0 mm 2 m/s 733 mmHg 95%
    06:00 +17°C° 0.2 mm 3 m/s 733 mmHg 91%
    07:00 +19°C° 0.2 mm 3 m/s 733 mmHg 87%
    08:00 +20°C° 0.2 mm 4 m/s 733 mmHg 83%
    09:00 +21°C° 0.4 mm 4 m/s 733 mmHg 79%
    10:00 +22°C° 0.4 mm 4 m/s 733 mmHg 74%
    11:00 +23°C° 0.4 mm 5 m/s 733 mmHg 70%
    12:00 +23°C° 1 mm 4 m/s 733 mmHg 70%
    13:00 +23°C° 1 mm 4 m/s 733 mmHg 69%
    14:00 +23°C° 1 mm 4 m/s 733 mmHg 69%
    15:00 +22°C° 1.5 mm 4 m/s 732 mmHg 73%
    16:00 +21°C° 1.5 mm 3 m/s 732 mmHg 77%
    17:00 +20°C° 1.5 mm 3 m/s 732 mmHg 81%
    18:00 +19°C° 0.1 mm 2 m/s 732 mmHg 84%
    19:00 +18°C° 0.1 mm 2 m/s 732 mmHg 86%
    20:00 +18°C° 0.1 mm 1 m/s 732 mmHg 89%
    21:00 +16°C° 0.7 mm 1 m/s 732 mmHg 90%
    22:00 +16°C° 0.7 mm 2 m/s 732 mmHg 91%
    23:00 +15°C° 0.7 mm 2 m/s 732 mmHg 93%
    Mostrar mais